FW0906 Weather Reports


Display with metric or nautical units.
time (UTC)temp
F
wind
direction
speed
MPH
gust
MPH
rain 1hr
in
rain 24hr
in
rain mn
in
humidity
%
barometer
mb
20260831203016 91 243 2.0 11.0 0.00 0.00 0.00 14 1014.2
20260831201505 91 360 5.0 12.0 0.00 0.00 0.00 1 1014.4
20260831200059 91 360 5.0 10.0 0.00 0.00 0.00 3 1014.5
20260831194621 89 360 1.0 11.0 0.00 0.00 0.00 4 1014.3
20260831193051 90 360 2.0 11.0 0.00 0.00 0.00 16 1014.1
20260831191545 90 231 4.0 14.0 0.00 0.00 0.00 24 1014.5
20260831190045 91 201 3.0 12.0 0.00 0.00 0.00 23 1014.5
20260831184538 91 221 3.0 11.0 0.00 0.00 0.00 16 1014.6
20260831183033 90 216 4.0 13.0 0.00 0.00 0.00 17 1014.5
20260831181528 90 205 3.0 8.0 0.00 0.00 0.00 9 1014.6
20260831180026 88 225 3.0 12.0 0.00 0.00 0.00 1 1014.8
20260831174520 88 217 3.0 17.0 0.00 0.00 0.00 4 1014.9
20260831173015 86 171 2.0 11.0 0.00 0.00 0.00 100 1015.1
20260831171511 85 188 3.0 13.0 0.00 0.00 0.00 100 1015.2
20260831170008 84 179 3.0 10.0 0.00 0.00 0.00 100 1015.3
20260831164502 83 170 3.0 9.0 0.00 0.00 0.00 100 1015.6
20260831163103 82 165 2.0 11.0 0.00 0.00 0.00 100 1015.8
20260831161553 80 180 1.0 8.0 0.00 0.00 0.00 100 1016.0
20260831160049 79 184 1.0 8.0 0.00 0.00 0.00 100 1015.8
20260831154545 77 186 2.0 12.0 0.00 0.00 0.00 100 1015.9
20260831153040 76 164 2.0 7.0 0.00 0.00 0.00 100 1016.0
20260831151538 75 165 4.0 6.0 0.00 0.00 0.00 100 1016.2
20260831150032 0 0.0 0.0 0.00 0.00 0.00 1016.2
20260831144527 0 0.0 0.0 0.00 0.00 0.00 1016.1
20260831143023 0 0.0 0.0 0.00 0.00 0.00 1016.0
20260831141519 0 0.0 0.0 0.00 0.00 0.00 1015.8
20260831140016 0 0.0 0.0 0.00 0.00 0.00 1016.1
20260831134510 0 0.0 0.0 0.00 0.00 0.00 1016.0
20260831133006 0 0.0 0.0 0.00 0.00 0.00 1016.1
20260831131604 0 0.0 0.0 0.00 0.00 0.00 1016.0
20260831130110 0 0.0 0.0 0.00 0.00 0.00 1016.1
20260831124551 73 176 0.0 3.0 0.00 0.00 0.00 100 1016.1
20260831123047 74 215 0.0 0.0 0.00 0.00 0.00 100 1016.2
20260831121542 74 217 0.0 4.0 0.00 0.00 0.00 100 1016.1
20260831120038 74 219 0.0 6.0 0.00 0.00 0.00 100 1015.3
20260831114534 73 206 0.0 5.0 0.00 0.00 0.00 100 1015.1
20260831113029 73 215 1.0 6.0 0.00 0.00 0.00 100 1015.0
20260831111525 73 225 1.0 7.0 0.00 0.00 0.00 100 1014.9
20260831110021 74 198 1.0 5.0 0.00 0.00 0.00 100 1015.0
20260831104516 74 208 0.0 6.0 0.00 0.00 0.00 100 1015.2
20260831103012 74 197 0.0 0.0 0.00 0.00 0.00 100 1015.3
20260831101507 75 219 0.0 6.0 0.00 0.00 0.00 100 1015.3
20260831100003 74 209 0.0 5.0 0.00 0.00 0.00 100 1015.0
20260831094559 75 203 0.0 6.0 0.00 0.00 0.00 100 1014.9
20260831093054 75 182 1.0 7.0 0.00 0.00 0.00 100 1015.0
20260831091558 75 210 0.0 6.0 0.00 0.00 0.00 100 1015.1
20260831090045 75 206 0.0 5.0 0.00 0.00 0.00 100 1015.1
20260831084540 76 190 0.0 6.0 0.00 0.00 0.00 100 1015.1
20260831083040 76 200 0.0 6.0 0.00 0.00 0.00 100 1015.1
20260831081536 76 205 0.0 4.0 0.00 0.00 0.00 100 1015.0
20260831080028 76 211 0.0 7.0 0.00 0.00 0.00 100 1015.1
20260831074523 76 232 0.0 4.0 0.00 0.00 0.00 100 1015.2
20260831073019 77 225 0.0 5.0 0.00 0.00 0.00 100 1015.2
20260831071514 77 227 0.0 6.0 0.00 0.00 0.00 100 1015.5
20260831070023 77 217 0.0 5.0 0.00 0.00 0.00 100 1015.3
20260831064506 77 230 0.0 8.0 0.00 0.00 0.00 100 1015.5
20260831063001 78 207 1.0 8.0 0.00 0.00 0.00 100 1015.4
20260831061557 78 225 2.0 7.0 0.00 0.00 0.00 100 1015.3
20260831060059 78 208 3.0 8.0 0.00 0.00 0.00 100 1015.4
20260831054548 77 222 2.0 9.0 0.00 0.00 0.00 100 1015.3
20260831053046 77 208 1.0 6.0 0.00 0.00 0.00 100 1015.4
20260831051549 77 188 0.0 6.0 0.00 0.00 0.00 100 1015.5
20260831050035 77 202 1.0 7.0 0.00 0.00 0.00 100 1015.6
20260831044530 77 213 0.0 0.0 0.00 0.00 0.00 100 1015.7
20260831043026 76 190 0.0 0.0 0.00 0.00 0.00 100 1015.8
20260831041554 76 187 0.0 0.0 0.00 0.00 0.00 100 1016.0
20260831040018 76 187 0.0 0.0 0.00 0.00 0.00 100 1016.2
20260831034513 76 186 0.0 0.0 0.00 0.00 0.00 100 1016.2
20260831033009 75 186 0.0 0.0 0.00 0.00 0.00 100 1016.5
20260831031507 75 186 0.0 0.0 0.00 0.00 0.00 100 1016.7
20260831030108 75 182 0.0 0.0 0.00 0.00 0.00 100 1017.1
20260831024617 75 182 0.0 0.0 0.00 0.00 0.00 100 1016.7
20260831023052 75 184 0.0 0.0 0.00 0.00 0.00 100 1016.8
20260831021552 75 184 0.0 0.0 0.00 0.00 0.00 100 1016.7
20260831020043 75 184 0.0 0.0 0.00 0.00 0.00 100 1017.0
20260831014538 76 188 0.0 0.0 0.00 0.00 0.00 100 1017.2
20260831013034 76 192 0.0 0.0 0.00 0.00 0.00 100 1017.0
20260831011543 76 182 0.0 0.0 0.00 0.00 0.00 100 1016.3
20260831010029 76 194 0.0 0.0 0.00 0.00 0.00 100 1016.8
20260831004521 76 186 0.0 0.0 0.00 0.00 0.00 100 1016.5
20260831003017 76 171 0.0 0.0 0.00 0.00 0.00 100 1016.1
20260831001512 76 176 0.0 3.0 0.00 0.00 0.00 100 1016.0
20260831000008 76 192 0.0 0.0 0.00 0.00 0.00 100 1016.5
20260830234507 76 187 0.0 0.0 0.00 0.00 0.00 100 1016.7
20260830233100 76 186 0.0 0.0 0.00 0.00 0.00 100 1016.7
20260830231558 76 186 0.0 0.0 0.00 0.00 0.00 100 1016.7
20260830230055 76 192 0.0 0.0 0.00 0.00 0.00 100 1016.4
20260830224546 0 0.0 0.0 0.00 0.00 0.00 1016.6
20260830223106 0 0.0 0.0 0.00 0.00 0.00 1017.2
20260830221538 0 0.0 0.0 0.00 0.00 0.00 1017.2
20260830220033 0 0.0 0.0 0.00 0.00 0.00 1017.0
20260830214533 0 0.0 0.0 0.00 0.00 0.00 1016.9
20260830213034 0 0.0 0.0 0.00 0.00 0.00 1016.9
20260830211520 0 0.0 0.0 0.00 0.00 0.00 1017.0
20260830210017 0 0.0 0.0 0.00 0.00 0.00 1017.0
20260830204511 0 0.0 0.0 0.00 0.00 0.00 1017.1